Simultaneous Nadir Overpasses (SNOs) Predictions

Prediction of SNOs between GOES-16 and METOP-B Satellite Orbit:

Table of predicted SNOs for the next 14.0 days since TLE Epoch: 4/2/2022
Index Date Time (GOES-16) GOES-16 Lat,Lon METOP-B Lat,Lon Distance(km) Time Diff (sec)
1 04/03/2022 14:47:51 0.06, -75.23 0.92, -78.96 426.25 80
2 04/04/2022 14:24:32 0.06, -75.23 -0.24, -73.98 143.23 80
3 04/06/2022 02:46:13 -0.06, -75.22 -0.78, -78.57 381.42 80
4 04/07/2022 02:22:53 -0.05, -75.22 0.32, -73.58 188.18 80
5 04/08/2022 14:44:25 0.05, -75.25 0.68, -78.14 328.76 80
6 04/09/2022 14:21:06 0.05, -75.26 -0.42, -73.14 241.20 80
7 04/11/2022 02:42:46 -0.05, -75.26 -0.59, -77.74 282.52 80
8 04/12/2022 02:19:27 -0.04, -75.27 0.52, -72.74 287.80 80
9 04/13/2022 14:38:19 0.04, -75.31 0.48, -77.31 228.01 80
10 04/14/2022 14:17:40 0.04, -75.32 -0.63, -72.31 342.84 80
11 04/16/2022 02:39:20 -0.04, -75.33 -0.37, -76.91 179.58 80
